This demonstration page uses our WeatherBlox Daily Observations layout. Learn more.

Hourly Observations for August 12, 2020

Temp ( °F °C ) Dew Point ( °F °C ) Humidity (%) Winds ( mph kmh ) Pressure ( in mb ) Visibility ( mi km ) Precip ( " mm )
12:53 am 00:53 Clear 69 20.6 68 20 96 96 Calm 30.02 1017 7 11.26538 0 0
1:53 am 01:53 Clear 68 20 67 19.4 96 96 Calm 30.02 1017 8 12.87472 0 0
2:53 am 02:53 Clear 68 20 66 18.9 93 93 Calm 30.02 1017 7 11.26538 0 0
3:53 am 03:53 Clear 67 19.4 66 18.9 97 97 Calm 30.03 1017 8 12.87472 0 0
4:53 am 04:53 Clear with Mist and Fog 67 19.4 66 18.9 97 97 Calm 30.03 1017 6 9.65604 0 0
5:53 am 05:53 Clear with Mist and Fog 67 19.4 66 18.9 97 97 Calm 30.05 1018 6 9.65604 0 0
6:53 am 06:53 Sunny with Mist and Fog 66 18.9 65 18.3 96 96 Calm 30.06 1018 6 9.65604 0 0
7:53 am 07:53 Partly Cloudy with Mist and Fog 68 20 67 19.4 96 96 Calm 30.07 1018 6 9.65604 0 0
8:53 am 08:53 Mostly Cloudy 74 23.3 70 21.1 88 88 Calm 30.08 1019 10 16.0934 0 0
9:53 am 09:53 Sunny 77 25 69 20.6 77 77 NE 6 9 30.08 1019 10 16.0934 0 0
10:53 am 10:53 Sunny 80 26.7 70 21.1 71 71 E 7 11 30.08 1019 10 16.0934 0 0
11:53 am 11:53 Sunny 81 27.2 69 20.6 67 67 E 5 7 30.08 1019 10 16.0934 0 0
12:53 pm 12:53 Partly Cloudy 83 28.3 71 21.7 67 67 VRB 3 6 30.06 1018 10 16.0934 0 0
1:53 pm 13:53 Sunny 84 28.9 70 21.1 63 63 E 5 7 30.06 1018 10 16.0934 0 0
2:53 pm 14:53 Mostly Sunny 86 30 70 21.1 59 59 Calm 30.05 1018 10 16.0934 0 0
3:53 pm 15:53 Sunny 85 29.4 70 21.1 61 61 E 6 9 30.04 1017 10 16.0934 0 0
4:53 pm 16:53 Mostly Cloudy 85 29.4 71 21.7 63 63 N 6 9 30.03 1017 10 16.0934 0 0
5:53 pm 17:53 Mostly Sunny 85 29.4 70 21.1 61 61 NNW 8 13 30.03 1017 10 16.0934 0 0
6:53 pm 18:53 Sunny 84 28.9 70 21.1 63 63 N 6 9 30.03 1017 10 16.0934 0 0
7:53 pm 19:53 Sunny 82 27.8 69 20.6 65 65 N 9 15 30.03 1017 10 16.0934 0 0
8:53 pm 20:53 Clear 78 25.6 68 20 71 71 N 5 7 30.04 1017 10 16.0934 0 0
9:53 pm 21:53 Clear 77 25 67 19.4 71 71 NE 3 6 30.05 1018 10 16.0934 0 0
10:53 pm 22:53 Mostly Cloudy 72 22.2 69 20.6 91 91 Calm 30.05 1018 10 16.0934 0 0
11:53 pm 23:53 Mostly Clear 70 21.1 68 20 93 93 Calm 30.06 1018 10 16.0934 0 0

Powered by AerisWeather